DW2715 Weather Reports


time (UTC)temp
F
wind
direction
speed
knots
gust
knots
rain 1hr
in
rain 24hr
in
rain mn
in
humidity
%
barometer
mb
20260507113103 71 259 1.7 7.8 0.00 0.18 0.00 54 1012.7
20260507112103 71 169 1.7 7.8 0.00 0.18 0.00 55 1012.9
20260507111603 71 239 0.9 7.8 0.00 0.18 0.00 53 1012.9
20260507111103 71 215 1.7 9.6 0.00 0.18 0.00 54 1013.0
20260507110602 71 207 2.6 10.4 0.00 0.18 0.00 54 1013.0
20260507110103 71 207 3.5 10.4 0.00 0.18 0.00 55 1013.0
20260507105609 71 205 2.6 10.4 0.00 0.18 0.00 58 1013.1
20260507105103 70 236 3.5 9.6 0.00 0.18 0.00 58 1013.2
20260507104604 69 185 5.2 10.4 0.00 0.18 0.00 60 1013.1
20260507104103 70 237 3.5 10.4 0.00 0.18 0.00 61 1013.3
20260507103602 69 182 1.7 8.7 0.00 0.18 0.00 61 1013.3
20260507103103 68 186 1.7 8.7 0.00 0.18 0.00 61 1013.4
20260507102602 68 213 0.9 8.7 0.00 0.18 0.00 59 1013.4
20260507102105 68 257 1.7 8.7 0.00 0.18 0.00 58 1013.4
20260507101602 69 240 1.7 7.8 0.00 0.18 0.00 56 1013.5
20260507101102 69 240 1.7 7.8 0.00 0.18 0.00 58 1013.5
20260507100603 69 188 1.7 10.4 0.00 0.18 0.00 60 1013.5
20260507095603 67 216 0.9 6.1 0.00 0.18 0.00 64 1013.5
20260507094603 67 227 0.9 7.0 0.00 0.18 0.00 67 1013.5
20260507094102 67 175 0.9 7.0 0.00 0.18 0.00 70 1013.5
20260507093603 66 148 0.0 1.7 0.00 0.18 0.00 71 1013.5
20260507093102 67 297 0.0 5.2 0.00 0.18 0.00 70 1013.6
20260507092558 66 178 0.9 5.2 0.00 0.19 0.00 72 1013.5
20260507092059 66 204 0.9 6.1 0.00 0.19 0.00 73 1013.5
20260507090558 65 200 0.9 5.2 0.00 0.20 0.00 73 1013.5
20260507090059 65 213 0.9 5.2 0.00 0.20 0.00 72 1013.5
20260507085557 65 222 0.9 6.1 0.00 0.20 0.00 70 1013.5
20260507085058 65 217 0.9 6.1 0.00 0.20 0.00 70 1013.5
20260507084558 65 203 0.0 3.5 0.00 0.20 0.00 72 1013.4
20260507084059 65 304 0.0 1.7 0.00 0.20 0.00 71 1013.3
20260507083600 65 290 0.0 2.6 0.00 0.20 0.00 70 1013.4
20260507083058 65 246 1.7 7.0 0.00 0.20 0.00 71 1013.4
20260507082558 65 262 1.7 7.0 0.00 0.20 0.00 72 1013.3
20260507081558 65 229 0.9 4.3 0.00 0.20 0.00 75 1013.2
20260507080558 65 206 1.7 5.2 0.00 0.20 0.00 78 1013.3
20260507080058 64 197 1.7 5.2 0.00 0.20 0.00 79 1013.3
20260507075600 64 196 1.7 3.5 0.00 0.20 0.00 81 1013.3
20260507075058 63 215 1.7 4.3 0.00 0.20 0.00 82 1013.4
20260507074055 63 240 0.9 3.5 0.00 0.20 0.00 84 1013.3
20260507073549 63 163 0.9 3.5 0.00 0.20 0.00 87 1013.2
20260507073050 62 163 0.9 3.5 0.00 0.20 0.00 88 1013.2
20260507072548 61 224 0.9 1.7 0.00 0.20 0.00 88 1013.2
20260507072047 61 224 0.9 1.7 0.00 0.20 0.00 89 1013.2
20260507071551 61 225 0.9 1.7 0.00 0.20 0.00 89 1013.2
20260507071046 61 225 0.9 2.6 0.00 0.20 0.00 90 1013.1
20260507070543 61 225 1.7 2.6 0.00 0.20 0.00 90 1013.1
20260507065540 60 215 0.9 2.6 0.00 0.20 0.00 91 1013.0
20260507065039 60 249 0.9 2.6 0.00 0.20 0.00 91 1013.0
20260507064540 60 247 0.9 2.6 0.00 0.20 0.00 92 1012.9
20260507064040 59 246 0.9 3.5 0.00 0.20 0.00 92 1013.0
20260507062536 59 273 1.7 3.5 0.00 0.20 0.00 92 1012.8
20260507062035 59 248 1.7 3.5 0.00 0.20 0.00 92 1012.8
20260507061535 59 255 0.9 3.5 0.00 0.20 0.00 92 1012.9
20260507061034 58 259 0.0 2.6 0.00 0.20 0.00 92 1012.9
20260507060531 58 244 0.0 0.9 0.00 0.20 0.00 92 1012.8
20260507060030 58 244 0.0 0.0 0.00 0.20 0.00 92 1012.8
20260507055524 58 244 0.0 0.0 0.00 0.20 0.00 92 1012.7
20260507055024 57 244 0.0 0.0 0.00 0.20 0.00 92 1012.6
20260507054019 57 244 0.0 0.0 0.00 0.20 0.00 92 1012.5
20260507053518 57 279 0.0 0.0 0.00 0.20 0.00 92 1012.5
20260507053015 57 279 0.0 0.0 0.00 0.20 0.00 92 1012.4
20260507052515 57 280 0.0 0.0 0.00 0.20 0.00 92 1012.4
20260507052016 57 5 0.0 0.0 0.00 0.20 0.00 92 1012.4
20260507051513 56 5 0.0 0.0 0.00 0.21 0.00 92 1012.4
20260507051012 56 5 0.0 0.0 0.00 0.21 0.00 92 1012.4
20260507050511 56 5 0.0 0.0 0.00 0.21 0.00 92 1012.3
20260507050014 56 5 0.0 0.0 0.00 0.21 0.00 92 1012.3
20260507045007 56 5 0.0 0.9 0.00 0.21 0.00 92 1012.1
20260507044506 56 5 0.0 0.9 0.00 0.21 0.00 92 1012.1
20260507044003 56 5 0.0 0.9 0.00 0.21 0.00 92 1012.1
20260507043004 56 5 0.0 0.0 0.00 0.21 0.00 92 1011.9
20260507042503 56 5 0.0 0.0 0.00 0.21 0.00 92 1011.9
20260507042006 56 5 0.0 0.0 0.00 0.21 0.00 92 1011.8
20260507041501 56 5 0.0 0.0 0.00 0.21 0.00 92 1011.7
20260507040958 56 5 0.0 0.0 0.00 0.21 0.00 92 1011.7
20260507040457 55 5 0.0 0.0 0.00 0.21 0.00 92 1011.6
20260507035957 55 5 0.0 0.0 0.00 0.21 0.00 92 1011.6
20260507035455 55 5 0.0 0.0 0.00 0.21 0.00 92 1011.5
20260507034954 55 5 0.0 0.0 0.00 0.21 0.00 92 1011.6
20260507034451 55 5 0.0 0.0 0.00 0.21 0.00 92 1011.6
20260507033949 55 5 0.0 0.0 0.00 0.22 0.00 92 1011.5
20260507033447 55 5 0.0 0.0 0.00 0.23 0.00 92 1011.5
20260507031948 55 5 0.0 0.0 0.00 0.26 0.00 92 1011.4
20260507031447 55 5 0.0 0.9 0.00 0.27 0.00 92 1011.6
20260507030947 55 5 0.0 1.7 0.00 0.27 0.00 92 1011.5
20260507030448 55 5 0.9 2.6 0.00 0.27 0.00 92 1011.6
20260507025947 55 5 0.9 2.6 0.00 0.27 0.00 92 1011.5
20260507025448 55 344 0.9 2.6 0.00 0.27 0.00 92 1011.5
20260507024941 55 0 0.0 2.6 0.00 0.27 0.00 92 1011.4
20260507024437 55 34 0.0 2.6 0.00 0.27 0.00 92 1011.5
20260507023939 55 34 0.9 2.6 0.00 0.27 0.00 92 1011.4
20260507023437 55 5 0.0 2.6 0.00 0.27 0.00 92 1011.4
20260507022937 55 347 0.0 2.6 0.00 0.27 0.00 92 1011.4
20260507021935 55 328 0.0 0.9 0.00 0.27 0.00 92 1011.4
20260507021435 55 329 0.0 0.9 0.00 0.27 0.00 92 1011.3
20260507020935 55 329 0.0 0.9 0.00 0.27 0.00 92 1011.3
20260507015933 55 329 0.0 0.0 0.00 0.27 0.00 92 1011.4
20260507015431 56 329 0.0 1.7 0.00 0.27 0.00 92 1011.3
20260507014931 55 328 0.0 1.7 0.00 0.27 0.00 92 1011.3
20260507014432 56 329 0.0 1.7 0.00 0.27 0.00 92 1011.2
20260507013931 55 343 0.0 0.9 0.00 0.27 0.00 92 1011.2
20260507013431 55 350 0.0 0.0 0.00 0.27 0.00 92 1011.2
20260507012931 56 350 0.0 0.0 0.00 0.27 0.00 91 1011.2
20260507012431 56 350 0.0 0.0 0.00 0.27 0.00 91 1011.2
20260507011930 56 350 0.0 0.0 0.00 0.27 0.00 91 1011.2
20260507011431 56 350 0.0 0.0 0.00 0.27 0.00 92 1011.2
20260507010432 56 350 0.0 0.0 0.00 0.27 0.00 92 1011.3
20260507005931 56 350 0.0 0.0 0.00 0.27 0.00 92 1011.2
20260507005434 56 350 0.0 0.0 0.00 0.27 0.00 92 1011.4
20260507004930 56 350 0.0 1.7 0.00 0.27 0.00 92 1011.3
20260507004431 56 350 0.0 1.7 0.00 0.27 0.00 92 1011.4
20260507003932 56 350 0.0 1.7 0.00 0.27 0.00 91 1011.3
20260507003430 56 355 0.0 0.0 0.00 0.27 0.00 91 1011.3
20260507002931 56 355 0.0 0.0 0.00 0.27 0.00 91 1011.2
20260507002430 56 355 0.0 0.0 0.00 0.27 0.00 91 1011.3
20260507001931 56 355 0.0 0.0 0.00 0.27 0.00 91 1011.1
20260507001432 56 355 0.0 0.0 0.00 0.27 0.00 91 1011.0
20260507000931 56 355 0.0 0.0 0.00 0.27 0.00 91 1011.1
20260507000428 57 355 0.0 0.0 0.00 0.27 0.00 91 1011.1
20260506235417 57 355 0.0 1.7 0.00 0.27 0.00 91 1011.3
20260506234910 57 355 0.0 0.9 0.00 0.27 0.00 91 1011.3
20260506234403 57 355 0.0 0.9 0.00 0.27 0.00 91 1011.3
20260506233902 57 355 0.0 0.9 0.00 0.27 0.00 91 1011.2
20260506233403 57 355 0.0 0.0 0.00 0.27 0.00 91 1011.3
20260506232903 57 355 0.0 0.0 0.00 0.27 0.00 91 1011.2
20260506232403 57 355 0.0 0.0 0.00 0.27 0.00 91 1011.2
20260506231903 57 355 0.0 0.0 0.00 0.27 0.00 91 1011.2
20260506231403 57 355 0.0 0.0 0.00 0.27 0.00 91 1011.2
20260506230903 57 355 0.0 0.0 0.00 0.27 0.00 91 1011.2
20260506225902 57 355 0.0 1.7 0.00 0.27 0.00 91 1011.1
20260506225402 57 355 0.0 1.7 0.00 0.27 0.00 91 1011.1
20260506224904 57 27 0.0 0.0 0.00 0.27 0.00 91 1011.1
20260506224404 57 27 0.0 0.0 0.00 0.27 0.00 91 1011.1
20260506223402 57 27 0.0 1.7 0.00 0.27 0.00 91 1011.2
20260506222903 57 27 0.0 0.0 0.00 0.27 0.00 91 1011.2
20260506222402 58 27 0.0 0.0 0.00 0.27 0.00 91 1011.2
20260506221902 58 27 0.0 0.0 0.00 0.27 0.00 91 1011.2
20260506221404 58 27 0.0 0.0 0.00 0.27 0.00 90 1011.1
20260506220903 58 27 0.0 0.0 0.00 0.27 0.00 90 1011.1
20260506215902 58 27 0.0 0.0 0.00 0.27 0.27 90 1011.1
20260506215402 58 27 0.0 0.0 0.00 0.27 0.27 90 1011.1
20260506214903 58 27 0.0 0.0 0.00 0.27 0.27 91 1011.1
20260506214403 58 27 0.0 0.0 0.00 0.27 0.27 90 1011.0
20260506213903 58 27 0.0 0.0 0.00 0.27 0.27 90 1010.9
20260506212902 59 27 0.0 1.7 0.00 0.27 0.27 90 1011.0
20260506212404 59 27 0.0 1.7 0.00 0.27 0.27 90 1011.0
20260506211902 59 27 0.0 0.0 0.00 0.27 0.27 90 1011.0
20260506211402 59 33 0.0 0.0 0.00 0.27 0.27 90 1011.0
20260506205403 59 32 0.9 2.6 0.00 0.27 0.27 90 1010.8
20260506204902 60 33 0.9 2.6 0.00 0.27 0.27 90 1010.8
20260506204404 60 32 0.0 1.7 0.00 0.27 0.27 89 1010.8
20260506203902 60 33 0.0 1.7 0.00 0.27 0.27 89 1010.8
20260506202904 60 33 0.9 1.7 0.00 0.27 0.27 89 1010.8
20260506202402 60 33 0.9 3.5 0.00 0.27 0.27 89 1010.8
20260506201902 60 33 0.9 3.5 0.00 0.27 0.27 89 1010.8
20260506201403 60 32 0.9 2.6 0.00 0.27 0.27 89 1010.7
20260506195903 61 59 0.0 1.7 0.00 0.27 0.27 88 1010.5
20260506194903 61 59 0.9 2.6 0.00 0.27 0.27 88 1010.4
20260506194404 61 61 0.9 2.6 0.00 0.27 0.27 88 1010.3
20260506193904 61 5 0.9 3.5 0.00 0.27 0.27 88 1010.3
20260506193403 61 61 2.6 5.2 0.00 0.27 0.27 88 1010.2
20260506192900 61 47 2.6 5.2 0.00 0.27 0.27 88 1010.2
20260506192354 61 27 2.6 4.3 0.00 0.27 0.27 88 1010.1
20260506191848 61 51 1.7 4.3 0.00 0.27 0.27 87 1010.1
20260506191344 62 15 0.9 3.5 0.00 0.27 0.27 87 1010.2
20260506190840 62 355 0.9 3.5 0.00 0.27 0.27 87 1010.1
20260506190336 62 355 1.7 3.5 0.00 0.27 0.27 87 1010.0
20260506185835 62 355 1.7 3.5 0.00 0.27 0.27 87 1009.9
20260506185335 62 343 0.9 3.5 0.00 0.27 0.27 87 1010.0
20260506184832 62 96 0.9 2.6 0.00 0.27 0.27 87 1009.9
20260506184331 62 96 1.7 3.5 0.00 0.27 0.27 87 1009.9
20260506183832 62 33 1.7 3.5 0.00 0.27 0.27 87 1009.8
20260506183331 62 42 1.7 3.5 0.00 0.27 0.27 87 1009.8
20260506182833 62 48 1.7 3.5 0.00 0.27 0.27 87 1009.7
20260506182330 62 355 0.9 2.6 0.00 0.27 0.27 86 1009.7
20260506181333 62 355 2.6 4.3 0.00 0.27 0.27 86 1009.6
20260506180832 62 5 2.6 5.2 0.00 0.27 0.27 86 1009.6
20260506180331 62 25 1.7 5.2 0.00 0.27 0.27 85 1009.3
20260506175834 62 90 1.7 4.3 0.00 0.27 0.27 85 1009.2
20260506175331 63 114 1.7 3.5 0.00 0.27 0.27 85 1009.4
20260506174830 63 118 1.7 3.5 0.00 0.27 0.27 85 1009.4
20260506174331 63 139 1.7 4.3 0.00 0.27 0.27 85 1009.3
20260506173831 63 99 1.7 5.2 0.00 0.27 0.27 85 1009.3
20260506173332 63 115 1.7 5.2 0.00 0.27 0.27 84 1009.2
20260506172830 63 95 0.9 2.6 0.00 0.27 0.27 85 1009.3
20260506172331 63 90 0.9 2.6 0.00 0.27 0.27 85 1009.3
20260506171832 63 90 0.9 2.6 0.00 0.27 0.27 84 1009.3
20260506171331 63 89 0.9 2.6 0.00 0.27 0.27 84 1009.2
20260506170831 63 74 0.9 2.6 0.00 0.27 0.27 84 1009.2
20260506170331 63 74 1.7 3.5 0.00 0.27 0.27 84 1009.2
20260506165331 63 24 1.7 2.6 0.00 0.27 0.27 83 1009.1
20260506164330 64 32 1.7 3.5 0.00 0.27 0.27 82 1009.2
20260506163827 64 30 0.9 2.6 0.00 0.27 0.27 81 1009.2
20260506163329 64 126 0.9 3.5 0.00 0.27 0.27 81 1009.1
20260506162824 64 126 1.7 4.3 0.00 0.27 0.27 80 1009.2
20260506162323 65 126 1.7 4.3 0.00 0.27 0.27 80 1009.2
20260506161823 65 107 1.7 4.3 0.00 0.27 0.27 80 1009.3
20260506161324 65 115 2.6 5.2 0.00 0.27 0.27 79 1009.4
20260506160823 65 140 1.7 5.2 0.00 0.27 0.27 79 1009.5
20260506160323 65 140 1.7 4.3 0.00 0.27 0.27 80 1009.4
20260506155323 65 167 1.7 3.5 0.00 0.27 0.27 82 1009.4
20260506154823 65 146 1.7 3.5 0.00 0.27 0.27 84 1009.5
20260506154319 64 84 1.7 4.3 0.00 0.27 0.27 85 1009.4
20260506153820 64 121 2.6 4.3 0.00 0.27 0.27 85 1009.3
20260506153320 64 159 2.6 5.2 0.00 0.27 0.27 86 1009.2
20260506152319 63 138 2.6 5.2 0.00 0.27 0.27 86 1009.2
20260506151819 63 157 2.6 5.2 0.00 0.27 0.27 86 1009.3
20260506150819 62 105 2.6 6.1 0.00 0.27 0.27 86 1009.4
20260506150328 62 165 2.6 6.1 0.00 0.27 0.27 87 1009.4
20260506145817 62 138 2.6 6.1 0.00 0.27 0.27 88 1009.4
20260506145318 61 65 1.7 6.1 0.00 0.27 0.27 88 1009.4
20260506144815 61 137 2.6 5.2 0.00 0.27 0.27 89 1009.4
20260506144315 60 92 2.6 6.1 0.00 0.27 0.27 89 1009.5
20260506143815 60 159 2.6 6.1 0.00 0.27 0.27 89 1009.5
20260506143313 60 109 2.6 7.8 0.00 0.27 0.27 90 1009.6
20260506141811 60 95 4.3 8.7 0.00 0.27 0.27 90 1009.4
20260506141311 61 125 3.5 8.7 0.00 0.27 0.27 90 1009.4
20260506140811 61 64 3.5 7.8 0.01 0.27 0.27 91 1009.5
20260506135808 61 94 2.6 7.0 0.07 0.27 0.27 91 1009.7
20260506134807 61 75 2.6 7.0 0.16 0.27 0.27 90 1009.5
20260506134307 61 87 2.6 7.0 0.17 0.27 0.27 90 1009.5
20260506133807 61 80 1.7 7.0 0.17 0.27 0.27 90 1009.7
20260506132807 61 58 2.6 6.1 0.18 0.27 0.27 90 1009.8
20260506132307 61 97 3.5 7.8 0.18 0.27 0.27 90 1009.9
20260506131805 61 93 3.5 7.8 0.18 0.27 0.27 89 1009.9
20260506131306 61 108 2.6 7.0 0.18 0.27 0.27 89 1009.9
20260506130805 61 108 2.6 6.1 0.17 0.26 0.26 89 1010.1
20260506130305 61 105 1.7 6.1 0.15 0.24 0.23 88 1010.1
20260506125803 61 140 2.6 7.0 0.11 0.20 0.19 88 1010.2
20260506125306 61 86 3.5 7.0 0.06 0.14 0.13 87 1010.2
20260506124302 62 114 2.6 6.1 0.01 0.09 0.09 87 1010.3
20260506123803 62 80 2.6 6.1 0.01 0.09 0.09 87 1010.2
20260506122805 62 150 2.6 7.8 0.00 0.09 0.09 87 1010.0
20260506122305 62 98 2.6 7.8 0.00 0.09 0.09 86 1010.0
20260506121807 62 81 2.6 7.0 0.00 0.09 0.09 86 1010.0
20260506121302 62 71 2.6 7.0 0.00 0.09 0.09 86 1010.1
20260506120803 62 86 2.6 8.7 0.00 0.09 0.09 85 1010.2
20260506120302 62 128 3.5 8.7 0.00 0.09 0.09 85 1010.2
20260506115802 62 113 3.5 7.8 0.00 0.09 0.09 84 1010.3
20260506115306 63 101 3.5 7.8 0.00 0.09 0.09 84 1010.4
20260506114805 63 132 2.6 7.0 0.00 0.09 0.09 83 1010.4